TimeCST,TemperatureF,Dew PointF,Humidity,Sea Level PressureIn,VisibilityMPH,Wind Direction,Wind SpeedMPH,Gust SpeedMPH,PrecipitationIn,Events,Conditions,WindDirDegrees,DateUTC
12:16 AM,44.6,42.8,93,30.14,4.0,NW,18.4,23.0,0.08,Rain,Heavy Rain,320,2013-11-26 06:16:00
12:52 AM,45.0,42.1,90,30.15,7.0,NW,11.5,-,0.12,Rain-Thunderstorm,Rain,320,2013-11-26 06:52:00
1:13 AM,44.6,42.8,93,30.12,10.0,NNW,16.1,-,0.03,Rain,Light Rain,340,2013-11-26 07:13:00
1:48 AM,44.6,42.8,93,30.16,10.0,NW,15.0,-,0.04,Rain,Light Rain,320,2013-11-26 07:48:00
1:52 AM,45.0,42.1,90,30.15,10.0,NW,17.3,-,0.04,Rain,Light Rain,320,2013-11-26 07:52:00
2:52 AM,45.0,42.1,90,30.14,10.0,NW,13.8,-,0.01,,Overcast,320,2013-11-26 08:52:00
3:52 AM,45.0,42.1,90,30.13,10.0,NNW,18.4,-,0.01,Rain,Light Rain,330,2013-11-26 09:52:00
4:24 AM,44.6,42.8,93,30.15,10.0,NW,12.7,-,0.00,,Overcast,320,2013-11-26 10:24:00
4:34 AM,44.6,42.8,93,30.17,10.0,NW,13.8,-,0.00,,Mostly Cloudy,320,2013-11-26 10:34:00
4:52 AM,45.0,42.1,90,30.16,10.0,NNW,13.8,-,0.00,,Mostly Cloudy,330,2013-11-26 10:52:00
5:52 AM,44.1,41.0,89,30.17,10.0,NNW,12.7,-,N/A,,Clear,330,2013-11-26 11:52:00
6:52 AM,44.1,41.0,89,30.18,10.0,NNW,11.5,-,N/A,,Clear,340,2013-11-26 12:52:00
7:52 AM,45.0,42.1,90,30.21,10.0,NNW,10.4,-,N/A,,Clear,330,2013-11-26 13:52:00
8:52 AM,48.0,42.1,80,30.24,10.0,NNW,16.1,-,N/A,,Clear,330,2013-11-26 14:52:00
9:52 AM,50.0,42.1,74,30.25,10.0,NNW,21.9,26.5,N/A,,Partly Cloudy,330,2013-11-26 15:52:00
10:52 AM,52.0,41.0,66,30.25,10.0,NNW,21.9,28.8,N/A,,Partly Cloudy,340,2013-11-26 16:52:00
11:52 AM,55.0,39.9,57,30.25,10.0,NNW,25.3,31.1,N/A,,Partly Cloudy,340,2013-11-26 17:52:00
12:52 PM,55.9,39.0,53,30.22,10.0,NW,23.0,29.9,N/A,,Partly Cloudy,320,2013-11-26 18:52:00
1:52 PM,57.9,37.9,47,30.19,10.0,NW,26.5,36.8,N/A,,Clear,320,2013-11-26 19:52:00
2:52 PM,59.0,39.0,48,30.19,10.0,NNW,25.3,33.4,N/A,,Mostly Cloudy,340,2013-11-26 20:52:00
3:52 PM,57.0,39.0,51,30.20,10.0,NNW,25.3,31.1,N/A,,Clear,330,2013-11-26 21:52:00
4:52 PM,55.0,39.0,55,30.22,10.0,NW,20.7,29.9,N/A,,Clear,320,2013-11-26 22:52:00
5:52 PM,50.0,39.0,66,30.26,10.0,North,15.0,-,N/A,,Clear,350,2013-11-26 23:52:00
6:52 PM,48.9,37.0,64,30.30,10.0,North,16.1,-,N/A,,Clear,350,2013-11-27 00:52:00
7:52 PM,46.9,37.9,71,30.32,10.0,NNW,11.5,-,N/A,,Clear,340,2013-11-27 01:52:00
8:52 PM,46.9,37.0,68,30.34,10.0,NNW,16.1,-,N/A,,Clear,330,2013-11-27 02:52:00
9:52 PM,46.0,37.0,71,30.35,10.0,NNW,13.8,-,N/A,,Clear,330,2013-11-27 03:52:00
10:52 PM,44.1,37.9,79,30.37,10.0,West,8.1,-,N/A,,Clear,280,2013-11-27 04:52:00
11:52 PM,42.1,37.0,82,30.37,10.0,West,5.8,-,N/A,,Clear,280,2013-11-27 05:52:00